Wisch, Netherlands
Current Conditions -  °F | °C
As of 5:55 AM on Friday 31 Oct 2014 (Local Time) from EHDL Reporting Station
Haze Haze  
Wind Chill: 52°   Ceiling: Unl
Heat Index: 52°   Visibility: 4mi
Dew Point: 52°   Wind: 6mph
Humidity: 100%   Direction: 170°S
Pressure: 30.15"   Gusts: NA
Location:  51.93°N, 6.42°E
Report Text: EHDL 310455Z AUTO 17005KT 6000 BR NCD 11/11 Q1021 WHT
Loading
Personal Weather Stations






























Interactive Weather Map
Tropical Storm Tracking
New forecast layout! Learn more

10-Day Weather Forecast

Advertisements
Track Severe Weather on mobile